SCP
0 0 0 0 0 0 -0 0 0 0 0 0 0 -0 0 0 0 0 0 0 0 0
0 0 0 0 0 0 0 0 0 0 0 0 0 0 -0 -0 0 0 0 0 0 0
0 0 0 0 0 0 0 0 0 0 0 0 0 0 0 -0 0 0 0 0 0 0
0 0 0 0 0 0 0 0 0 0 0 0 0 0 0 0 0 0 0 0 0 0
0 0 0 0 0 0 0 0 0 0 0 0 0 0 0 0 0 0 0 0 0 0
0 0 0 0 0 0 0 0 0 0 0 0 0 0 0 0 0 0 0 0 0 0
0 0 0 0 0 0 0 0 0 0 0 0 0 0 0 0 0 0 0 0 0 0
0 0 0 0 0 0 0 0 0 0 0 0 0 0 0 0 0 0 0 0 0 0
0 0 0 0 0 0 0 0 0 0 0 0 0 0 0 0 0 0 0 0 0 0
0 0 0 0 0 0 0 0 0 0 0 0 0 0 0 0 -0 0 0 0 0 0
0 0 0 0 0 -0 0 0 0 0 0 0 0 0 0 0 0 0 0 0 0 0
0 0 0 0 0 0 0 0 0 0 0 0 0 0 0 0 0 0 0 0 0 0
0 0 0 0 -0 0 -0 0 0 0 0 0 0 0 0 0 0 0 0 0 0 0
0 0 0 0 -0 -0 -0 -0 0 0 0 0 0 0 0 0 0 0 0 0 0 0
Wind_Speed_500mb
58 61 62 62 66 70 70 72 72 71 66 63 62 64 61 70 70 65 74 77 86 83
59 59 62 61 61 67 67 70 72 71 69 65 61 59 63 66 73 67 61 67 84 95
61 59 59 61 62 63 66 66 71 72 69 65 62 58 63 63 67 70 63 53 90 87
59 59 59 59 60 63 65 67 69 72 70 67 63 58 61 63 64 63 65 68 84 91
60 60 58 58 58 61 66 65 70 72 68 64 62 60 61 64 62 60 64 63 88 94
59 61 60 59 58 58 64 65 68 69 65 63 60 61 59 60 61 63 62 58 85 96
59 62 63 61 59 58 61 66 66 65 61 58 58 58 57 56 59 58 65 63 73 101
58 61 63 61 58 57 58 61 64 64 58 54 52 52 51 56 58 65 64 58 68 106
59 61 63 64 60 58 57 59 62 63 58 56 51 40 53 71 63 66 58 58 64 113
61 62 63 65 64 61 59 58 61 64 60 56 51 50 63 67 52 53 54 49 55 111
60 64 65 65 65 63 61 59 60 64 62 61 54 47 61 77 53 44 43 43 49 105
58 63 66 67 67 66 66 61 60 60 64 64 61 51 53 71 61 45 33 47 45 78
58 61 65 67 67 67 65 62 60 61 58 60 63 57 50 63 62 59 41 32 56 55
57 61 63 66 65 67 66 62 59 60 57 58 59 60 56 53 56 57 48 29 26 53
Wind_Direction_500mb
330 328 327 325 323 323 325 323 322 319 313 308 302 295 288 273 255 240 226 239 244 245
328 328 327 325 323 322 323 321 319 318 314 308 303 300 292 278 259 247 233 231 242 245
329 328 328 325 324 322 322 322 319 317 314 308 304 302 293 282 269 258 230 226 236 239
331 329 329 327 324 324 324 323 320 318 314 310 306 302 295 284 275 261 243 225 239 240
336 333 330 329 325 326 327 325 322 318 315 312 308 304 297 289 282 268 250 230 236 235
338 337 334 331 328 326 328 328 325 321 319 315 310 305 297 291 282 268 252 235 228 232
338 339 337 334 329 327 331 333 330 326 323 320 315 308 302 298 285 277 259 240 221 231
335 337 337 337 332 328 331 335 337 331 327 328 327 324 315 306 294 281 260 240 220 227
332 335 337 339 336 332 330 336 340 338 334 335 338 340 340 326 293 276 266 242 213 225
330 333 335 338 339 336 331 334 338 341 339 340 340 351 354 344 311 284 269 246 226 217
328 330 332 335 339 339 334 333 336 339 341 344 342 341 357 351 338 307 268 247 224 220
325 327 330 333 335 339 336 332 331 336 336 343 346 346 351 353 353 336 298 239 221 211
321 324 327 328 332 335 335 332 330 329 332 336 344 350 353 353 360 348 331 250 227 205
317 319 322 325 328 330 333 332 330 328 328 334 340 344 353 355 356 349 332 317 249 220
Wind_Speed_850mb
58 61 62 62 66 70 70 72 72 71 66 63 62 64 61 70 70 65 74 77 86 83
59 59 62 61 61 67 67 70 72 71 69 65 61 59 63 66 73 67 61 67 84 95
61 59 59 61 62 63 66 66 71 72 69 65 62 58 63 63 67 70 63 53 90 87
59 59 59 59 60 63 65 67 69 72 70 67 63 58 61 63 64 63 65 68 84 91
60 60 58 58 58 61 66 65 70 72 68 64 62 60 61 64 62 60 64 63 88 94
59 61 60 59 58 58 64 65 68 69 65 63 60 61 59 60 61 63 62 58 85 96
59 62 63 61 59 58 61 66 66 65 61 58 58 58 57 56 59 58 65 63 73 101
58 61 63 61 58 57 58 61 64 64 58 54 52 52 51 56 58 65 64 58 68 106
59 61 63 64 60 58 57 59 62 63 58 56 51 40 53 71 63 66 58 58 64 113
61 62 63 65 64 61 59 58 61 64 60 56 51 50 63 67 52 53 54 49 55 111
60 64 65 65 65 63 61 59 60 64 62 61 54 47 61 77 53 44 43 43 49 105
58 63 66 67 67 66 66 61 60 60 64 64 61 51 53 71 61 45 33 47 45 78
58 61 65 67 67 67 65 62 60 61 58 60 63 57 50 63 62 59 41 32 56 55
57 61 63 66 65 67 66 62 59 60 57 58 59 60 56 53 56 57 48 29 26 53
Wind_Direction_850mb
330 328 327 325 323 323 325 323 322 319 313 308 302 295 288 273 255 240 226 239 244 245
328 328 327 325 323 322 323 321 319 318 314 308 303 300 292 278 259 247 233 231 242 245
329 328 328 325 324 322 322 322 319 317 314 308 304 302 293 282 269 258 230 226 236 239
331 329 329 327 324 324 324 323 320 318 314 310 306 302 295 284 275 261 243 225 239 240
336 333 330 329 325 326 327 325 322 318 315 312 308 304 297 289 282 268 250 230 236 235
338 337 334 331 328 326 328 328 325 321 319 315 310 305 297 291 282 268 252 235 228 232
338 339 337 334 329 327 331 333 330 326 323 320 315 308 302 298 285 277 259 240 221 231
335 337 337 337 332 328 331 335 337 331 327 328 327 324 315 306 294 281 260 240 220 227
332 335 337 339 336 332 330 336 340 338 334 335 338 340 340 326 293 276 266 242 213 225
330 333 335 338 339 336 331 334 338 341 339 340 340 351 354 344 311 284 269 246 226 217
328 330 332 335 339 339 334 333 336 339 341 344 342 341 357 351 338 307 268 247 224 220
325 327 330 333 335 339 336 332 331 336 336 343 346 346 351 353 353 336 298 239 221 211
321 324 327 328 332 335 335 332 330 329 332 336 344 350 353 353 360 348 331 250 227 205
317 319 322 325 328 330 333 332 330 328 328 334 340 344 353 355 356 349 332 317 249 220